Time,TemperatureF,DewpointF,PressureIn,WindDirection,WindDirectionDegrees,WindSpeedMPH,WindSpeedGustMPH,Humidity,HourlyPrecipIn,Conditions,Clouds,dailyrainin,SoftwareType,DateUTC
2013-08-13 00:01:00,73.6,70.8,29.98,SW,217,2.0,2.0,91,0.00,,,0.00,Wunderground v.1.15,2013-08-13 04:01:00,
2013-08-13 00:02:00,73.6,70.8,29.98,SSW,199,2.0,2.0,91,0.00,,,0.00,Wunderground v.1.15,2013-08-13 04:02:00,
2013-08-13 00:04:00,73.6,70.8,29.98,SSW,199,2.0,2.0,91,0.00,,,0.00,Wunderground v.1.15,2013-08-13 04:04:00,
2013-08-13 00:06:00,73.6,70.8,29.98,South,190,2.0,2.0,91,0.00,,,0.00,Wunderground v.1.15,2013-08-13 04:06:00,
2013-08-13 00:12:00,73.7,70.9,29.97,SSW,194,2.0,2.0,91,0.00,,,0.00,Wunderground v.1.15,2013-08-13 04:12:00,
2013-08-13 00:18:00,73.5,71.0,29.97,South,191,2.0,2.0,92,0.00,,,0.00,Wunderground v.1.15,2013-08-13 04:18:00,
2013-08-13 00:24:00,73.5,71.0,29.97,South,188,2.0,2.0,92,0.00,,,0.00,Wunderground v.1.15,2013-08-13 04:24:00,
2013-08-13 00:30:00,73.5,71.0,29.97,South,181,1.0,1.0,92,0.00,,,0.00,Wunderground v.1.15,2013-08-13 04:30:00,
2013-08-13 00:36:00,73.6,71.1,29.96,SSW,204,1.0,4.0,92,0.00,,,0.00,Wunderground v.1.15,2013-08-13 04:36:00,
2013-08-13 00:42:00,73.6,71.1,29.96,SSW,211,1.0,1.0,92,0.00,,,0.00,Wunderground v.1.15,2013-08-13 04:42:00,
2013-08-13 00:48:00,73.5,71.0,29.95,South,188,0.0,1.0,92,0.00,,,0.00,Wunderground v.1.15,2013-08-13 04:48:00,
2013-08-13 00:54:00,73.4,70.9,29.95,South,188,0.0,0.0,92,0.00,,,0.00,Wunderground v.1.15,2013-08-13 04:54:00,
2013-08-13 01:00:00,73.2,70.7,29.95,South,187,0.0,0.0,92,0.00,,,0.00,Wunderground v.1.15,2013-08-13 05:00:00,
2013-08-13 01:06:00,73.0,70.9,29.95,SW,229,0.0,4.0,93,0.00,,,0.00,Wunderground v.1.15,2013-08-13 05:06:00,
2013-08-13 01:12:00,72.8,70.7,29.94,SW,229,0.0,4.0,93,0.00,,,0.00,Wunderground v.1.15,2013-08-13 05:12:00,
2013-08-13 01:18:00,72.7,70.9,29.94,SW,229,0.0,4.0,94,0.00,,,0.00,Wunderground v.1.15,2013-08-13 05:18:00,
2013-08-13 01:24:00,72.8,71.0,29.94,SW,229,0.0,4.0,94,0.00,,,0.00,Wunderground v.1.15,2013-08-13 05:24:00,
2013-08-13 01:30:00,72.8,71.0,29.94,SW,229,0.0,4.0,94,0.00,,,0.00,Wunderground v.1.15,2013-08-13 05:30:00,
2013-08-13 01:36:00,72.8,71.0,29.95,SW,229,0.0,4.0,94,0.00,,,0.00,Wunderground v.1.15,2013-08-13 05:36:00,
2013-08-13 01:42:00,72.7,70.9,29.94,SW,229,0.0,4.0,94,0.00,,,0.00,Wunderground v.1.15,2013-08-13 05:42:00,
2013-08-13 01:48:00,72.8,71.0,29.94,SW,229,0.0,4.0,94,0.00,,,0.00,Wunderground v.1.15,2013-08-13 05:48:00,
2013-08-13 01:54:00,72.8,71.0,29.94,SE,129,0.0,4.0,94,0.00,,,0.00,Wunderground v.1.15,2013-08-13 05:54:00,
2013-08-13 02:00:00,72.9,71.1,29.94,SE,128,0.0,4.0,94,0.00,,,0.00,Wunderground v.1.15,2013-08-13 06:00:00,
2013-08-13 02:06:00,73.1,71.3,29.94,South,180,0.0,4.0,94,0.00,,,0.00,Wunderground v.1.15,2013-08-13 06:06:00,
2013-08-13 02:12:00,73.2,71.1,29.94,South,183,0.0,4.0,93,0.00,,,0.00,Wunderground v.1.15,2013-08-13 06:12:00,
2013-08-13 02:18:00,73.5,71.4,29.93,SE,142,1.0,4.0,93,0.00,,,0.00,Wunderground v.1.15,2013-08-13 06:18:00,
2013-08-13 02:24:00,73.6,71.4,29.93,SW,217,1.0,4.0,93,0.00,,,0.00,Wunderground v.1.15,2013-08-13 06:24:00,
2013-08-13 02:30:00,73.7,71.5,29.93,South,190,2.0,2.0,93,0.00,,,0.00,Wunderground v.1.15,2013-08-13 06:30:00,
2013-08-13 02:36:00,73.7,71.5,29.93,South,174,2.0,4.0,93,0.00,,,0.00,Wunderground v.1.15,2013-08-13 06:36:00,
2013-08-13 02:42:00,73.6,71.4,29.93,SSE,148,2.0,4.0,93,0.00,,,0.00,Wunderground v.1.15,2013-08-13 06:42:00,
2013-08-13 02:48:00,73.5,71.4,29.93,SSE,163,3.0,4.0,93,0.00,,,0.00,Wunderground v.1.15,2013-08-13 06:48:00,
2013-08-13 02:54:00,73.5,71.4,29.94,SSE,156,3.0,4.0,93,0.00,,,0.00,Wunderground v.1.15,2013-08-13 06:54:00,
2013-08-13 03:00:00,73.6,71.4,29.93,South,176,3.0,4.0,93,0.00,,,0.00,Wunderground v.1.15,2013-08-13 07:00:00,
2013-08-13 03:06:00,73.6,71.4,29.93,SSE,163,3.0,4.0,93,0.00,,,0.00,Wunderground v.1.15,2013-08-13 07:06:00,
2013-08-13 03:12:00,73.5,71.4,29.93,South,188,2.0,4.0,93,0.00,,,0.00,Wunderground v.1.15,2013-08-13 07:12:00,
2013-08-13 03:18:00,73.5,71.4,29.92,South,191,2.0,4.0,93,0.00,,,0.00,Wunderground v.1.15,2013-08-13 07:18:00,
2013-08-13 03:24:00,73.5,71.4,29.93,South,176,2.0,4.0,93,0.00,,,0.00,Wunderground v.1.15,2013-08-13 07:24:00,
2013-08-13 03:30:00,73.6,71.8,29.92,SSE,160,4.0,4.0,94,0.00,,,0.00,Wunderground v.1.15,2013-08-13 07:30:00,
2013-08-13 03:36:00,73.6,71.4,29.92,South,187,5.0,6.0,93,0.00,,,0.00,Wunderground v.1.15,2013-08-13 07:36:00,
2013-08-13 03:42:00,73.5,71.7,29.92,South,176,4.0,4.0,94,0.00,,,0.00,Wunderground v.1.15,2013-08-13 07:42:00,
2013-08-13 03:48:00,73.5,71.7,29.91,SSE,153,3.0,4.0,94,0.00,,,0.00,Wunderground v.1.15,2013-08-13 07:48:00,
2013-08-13 03:54:00,73.4,71.6,29.91,SSE,158,2.0,4.0,94,0.00,,,0.00,Wunderground v.1.15,2013-08-13 07:54:00,
2013-08-13 04:00:00,73.3,71.5,29.91,South,176,2.0,4.0,94,0.00,,,0.00,Wunderground v.1.15,2013-08-13 08:00:00,
2013-08-13 04:06:00,73.3,71.5,29.91,SSE,162,3.0,4.0,94,0.00,,,0.00,Wunderground v.1.15,2013-08-13 08:06:00,
2013-08-13 04:12:00,73.4,71.6,29.90,SSW,194,4.0,4.0,94,0.00,,,0.00,Wunderground v.1.15,2013-08-13 08:12:00,
2013-08-13 04:18:00,73.4,71.6,29.90,South,187,4.0,6.0,94,0.00,,,0.00,Wunderground v.1.15,2013-08-13 08:18:00,
2013-08-13 04:24:00,73.3,71.5,29.90,SSW,207,3.0,4.0,94,0.00,,,0.00,Wunderground v.1.15,2013-08-13 08:24:00,
2013-08-13 04:30:00,73.4,71.6,29.90,South,181,4.0,6.0,94,0.00,,,0.00,Wunderground v.1.15,2013-08-13 08:30:00,
2013-08-13 04:36:00,73.4,71.6,29.90,SSW,205,4.0,6.0,94,0.00,,,0.00,Wunderground v.1.15,2013-08-13 08:36:00,
2013-08-13 04:42:00,73.3,71.5,29.90,SSW,194,4.0,7.0,94,0.00,,,0.00,Wunderground v.1.15,2013-08-13 08:42:00,
2013-08-13 04:48:00,73.3,71.5,29.90,SSW,198,4.0,7.0,94,0.00,,,0.00,Wunderground v.1.15,2013-08-13 08:48:00,
2013-08-13 04:54:00,73.3,71.5,29.90,SSW,193,5.0,6.0,94,0.00,,,0.00,Wunderground v.1.15,2013-08-13 08:54:00,
2013-08-13 05:00:00,73.3,71.5,29.90,South,172,5.0,5.0,94,0.00,,,0.00,Wunderground v.1.15,2013-08-13 09:00:00,
2013-08-13 05:06:00,73.2,71.4,29.90,South,187,4.0,5.0,94,0.00,,,0.00,Wunderground v.1.15,2013-08-13 09:06:00,
2013-08-13 05:12:00,73.2,71.4,29.91,South,190,4.0,6.0,94,0.00,,,0.00,Wunderground v.1.15,2013-08-13 09:12:00,
2013-08-13 05:18:00,73.4,71.3,29.91,SSW,208,4.0,6.0,93,0.00,,,0.00,Wunderground v.1.15,2013-08-13 09:18:00,
2013-08-13 05:24:00,73.5,71.4,29.91,SW,218,4.0,7.0,93,0.00,,,0.00,Wunderground v.1.15,2013-08-13 09:24:00,
2013-08-13 05:30:00,73.5,71.4,29.91,SW,214,4.0,4.0,93,0.00,,,0.00,Wunderground v.1.15,2013-08-13 09:30:00,
2013-08-13 05:36:00,73.5,71.4,29.91,SSW,203,2.0,4.0,93,0.00,,,0.00,Wunderground v.1.15,2013-08-13 09:36:00,
2013-08-13 05:42:00,73.5,71.0,29.91,SSW,205,2.0,4.0,92,0.00,,,0.00,Wunderground v.1.15,2013-08-13 09:42:00,
2013-08-13 05:48:00,73.5,71.0,29.91,SW,219,2.0,4.0,92,0.00,,,0.00,Wunderground v.1.15,2013-08-13 09:48:00,
2013-08-13 05:54:00,73.5,71.0,29.91,South,177,2.0,4.0,92,0.00,,,0.00,Wunderground v.1.15,2013-08-13 09:54:00,
2013-08-13 06:00:00,73.4,71.3,29.91,South,191,2.0,4.0,93,0.00,,,0.00,Wunderground v.1.15,2013-08-13 10:00:00,
2013-08-13 06:06:00,73.3,71.2,29.91,SSW,197,2.0,4.0,93,0.00,,,0.00,Wunderground v.1.15,2013-08-13 10:06:00,
2013-08-13 06:12:00,73.4,71.3,29.91,South,183,2.0,4.0,93,0.00,,,0.00,Wunderground v.1.15,2013-08-13 10:12:00,
2013-08-13 06:18:00,73.3,71.2,29.91,SSE,158,2.0,4.0,93,0.00,,,0.00,Wunderground v.1.15,2013-08-13 10:18:00,
2013-08-13 06:24:00,73.3,71.2,29.91,SSE,161,2.0,4.0,93,0.00,,,0.00,Wunderground v.1.15,2013-08-13 10:24:00,
2013-08-13 06:30:00,73.2,71.1,29.91,South,178,2.0,4.0,93,0.00,,,0.00,Wunderground v.1.15,2013-08-13 10:30:00,
2013-08-13 06:36:00,73.1,71.0,29.91,South,180,2.0,4.0,93,0.00,,,0.00,Wunderground v.1.15,2013-08-13 10:36:00,
2013-08-13 06:42:00,73.1,71.0,29.91,SSW,201,3.0,6.0,93,0.00,,,0.00,Wunderground v.1.15,2013-08-13 10:42:00,
2013-08-13 06:48:00,73.1,71.0,29.91,South,188,3.0,6.0,93,0.00,,,0.00,Wunderground v.1.15,2013-08-13 10:48:00,
2013-08-13 06:54:00,73.1,71.3,29.91,South,177,2.0,4.0,94,0.00,,,0.00,Wunderground v.1.15,2013-08-13 10:54:00,
2013-08-13 07:00:00,73.1,71.3,29.91,South,183,2.0,2.0,94,0.00,,,0.00,Wunderground v.1.15,2013-08-13 11:00:00,
2013-08-13 07:06:00,73.1,71.3,29.91,SSW,195,2.0,4.0,94,0.00,,,0.00,Wunderground v.1.15,2013-08-13 11:06:00,
2013-08-13 07:12:00,73.1,71.3,29.91,South,191,2.0,4.0,94,0.00,,,0.00,Wunderground v.1.15,2013-08-13 11:12:00,
2013-08-13 07:18:00,73.1,71.3,29.91,SSW,198,2.0,4.0,94,0.00,,,0.00,Wunderground v.1.15,2013-08-13 11:18:00,
2013-08-13 07:24:00,73.1,71.0,29.91,SSW,208,1.0,4.0,93,0.00,,,0.00,Wunderground v.1.15,2013-08-13 11:24:00,
2013-08-13 07:30:00,73.1,71.0,29.91,South,191,1.0,4.0,93,0.00,,,0.00,Wunderground v.1.15,2013-08-13 11:30:00,
2013-08-13 07:36:00,73.2,71.1,29.91,SW,218,3.0,7.0,93,0.00,,,0.00,Wunderground v.1.15,2013-08-13 11:36:00,
2013-08-13 07:42:00,73.3,71.2,29.91,SSW,195,4.0,4.0,93,0.00,,,0.00,Wunderground v.1.15,2013-08-13 11:42:00,
2013-08-13 07:48:00,73.3,70.8,29.91,SSW,211,4.0,4.0,92,0.00,,,0.00,Wunderground v.1.15,2013-08-13 11:48:00,
2013-08-13 07:54:00,73.4,70.9,29.92,South,188,4.0,5.0,92,0.00,,,0.00,Wunderground v.1.15,2013-08-13 11:54:00,
2013-08-13 08:00:00,73.4,70.9,29.92,South,181,3.0,3.0,92,0.00,,,0.00,Wunderground v.1.15,2013-08-13 12:00:00,
2013-08-13 08:06:00,73.5,71.0,29.92,SSE,155,3.0,4.0,92,0.00,,,0.00,Wunderground v.1.15,2013-08-13 12:06:00,
2013-08-13 08:12:00,73.5,71.0,29.92,SSE,162,4.0,6.0,92,0.00,,,0.00,Wunderground v.1.15,2013-08-13 12:12:00,
2013-08-13 08:18:00,73.6,71.1,29.92,South,174,4.0,6.0,92,0.00,,,0.00,Wunderground v.1.15,2013-08-13 12:18:00,
2013-08-13 08:24:00,73.6,71.1,29.92,South,181,3.0,4.0,92,0.00,,,0.00,Wunderground v.1.15,2013-08-13 12:24:00,
2013-08-13 08:30:00,73.6,71.1,29.92,SSE,149,3.0,5.0,92,0.00,,,0.00,Wunderground v.1.15,2013-08-13 12:30:00,
2013-08-13 08:36:00,73.9,71.4,29.93,SSW,198,4.0,5.0,92,0.00,,,0.00,Wunderground v.1.15,2013-08-13 12:36:00,
2013-08-13 08:42:00,74.2,71.4,29.93,South,187,3.0,4.0,91,0.00,,,0.00,Wunderground v.1.15,2013-08-13 12:42:00,
2013-08-13 08:48:00,74.2,71.4,29.93,SSW,194,3.0,4.0,91,0.00,,,0.00,Wunderground v.1.15,2013-08-13 12:48:00,
2013-08-13 08:54:00,74.0,71.2,29.93,South,190,3.0,5.0,91,0.00,,,0.00,Wunderground v.1.15,2013-08-13 12:54:00,
2013-08-13 09:00:00,73.8,71.0,29.93,South,188,4.0,9.0,91,0.00,,,0.00,Wunderground v.1.15,2013-08-13 13:00:00,
2013-08-13 09:06:00,73.6,70.8,29.93,South,184,5.0,9.0,91,0.00,,,0.00,Wunderground v.1.15,2013-08-13 13:06:00,
2013-08-13 09:12:00,73.6,70.8,29.93,SSE,150,4.0,4.0,91,0.00,,,0.00,Wunderground v.1.15,2013-08-13 13:12:00,
2013-08-13 09:18:00,73.7,70.9,29.93,SSW,193,4.0,5.0,91,0.00,,,0.00,Wunderground v.1.15,2013-08-13 13:18:00,
2013-08-13 09:24:00,74.2,71.1,29.93,South,174,5.0,5.0,90,0.00,,,0.00,Wunderground v.1.15,2013-08-13 13:24:00,
2013-08-13 09:30:00,74.6,71.5,29.93,SE,146,5.0,5.0,90,0.00,,,0.00,Wunderground v.1.15,2013-08-13 13:30:00,
2013-08-13 09:36:00,74.7,71.2,29.93,South,188,5.0,6.0,89,0.00,,,0.00,Wunderground v.1.15,2013-08-13 13:36:00,
2013-08-13 09:42:00,74.8,71.3,29.93,SSW,207,5.0,5.0,89,0.00,,,0.00,Wunderground v.1.15,2013-08-13 13:42:00,
2013-08-13 09:48:00,74.7,71.2,29.92,SSW,195,6.0,9.0,89,0.00,,,0.00,Wunderground v.1.15,2013-08-13 13:48:00,
2013-08-13 09:54:00,74.6,71.1,29.92,SSW,199,7.0,10.0,89,0.00,,,0.00,Wunderground v.1.15,2013-08-13 13:54:00,
2013-08-13 10:00:00,74.8,71.3,29.92,SSE,166,6.0,8.0,89,0.00,,,0.00,Wunderground v.1.15,2013-08-13 14:00:00,
2013-08-13 10:06:00,75.3,71.8,29.92,SSE,162,5.0,8.0,89,0.00,,,0.00,Wunderground v.1.15,2013-08-13 14:06:00,
2013-08-13 10:12:00,75.7,72.2,29.92,South,179,5.0,10.0,89,0.00,,,0.00,Wunderground v.1.15,2013-08-13 14:12:00,
2013-08-13 10:18:00,75.8,71.7,29.92,SSW,192,8.0,13.0,87,0.00,,,0.00,Wunderground v.1.15,2013-08-13 14:18:00,
2013-08-13 10:24:00,76.4,72.2,29.92,South,181,7.0,8.0,87,0.00,,,0.00,Wunderground v.1.15,2013-08-13 14:24:00,
2013-08-13 10:30:00,76.8,71.9,29.92,South,176,7.0,7.0,85,0.00,,,0.00,Wunderground v.1.15,2013-08-13 14:30:00,
2013-08-13 10:36:00,77.1,71.9,29.92,SE,142,8.0,9.0,84,0.00,,,0.00,Wunderground v.1.15,2013-08-13 14:36:00,
2013-08-13 10:42:00,77.5,72.3,29.92,SSE,150,7.0,8.0,84,0.00,,,0.00,Wunderground v.1.15,2013-08-13 14:42:00,
2013-08-13 10:48:00,78.0,72.8,29.92,South,183,7.0,8.0,84,0.00,,,0.00,Wunderground v.1.15,2013-08-13 14:48:00,
2013-08-13 10:54:00,77.7,71.4,29.92,SW,215,8.0,10.0,81,0.00,,,0.00,Wunderground v.1.15,2013-08-13 14:54:00,
2013-08-13 11:00:00,77.4,71.8,29.93,SSW,199,8.0,12.0,83,0.00,,,0.00,Wunderground v.1.15,2013-08-13 15:00:00,
2013-08-13 11:06:00,77.3,71.7,29.93,SSE,167,9.0,12.0,83,0.00,,,0.00,Wunderground v.1.15,2013-08-13 15:06:00,
2013-08-13 11:12:00,77.6,71.7,29.93,SSE,155,9.0,9.0,82,0.00,,,0.00,Wunderground v.1.15,2013-08-13 15:12:00,
2013-08-13 11:18:00,78.5,72.5,29.92,South,171,7.0,9.0,82,0.00,,,0.00,Wunderground v.1.15,2013-08-13 15:18:00,
2013-08-13 11:24:00,78.1,72.5,29.92,SSW,203,8.0,14.0,83,0.00,,,0.00,Wunderground v.1.15,2013-08-13 15:24:00,
2013-08-13 11:30:00,78.2,72.6,29.92,South,177,8.0,8.0,83,0.00,,,0.00,Wunderground v.1.15,2013-08-13 15:30:00,
2013-08-13 11:36:00,78.6,72.3,29.92,South,183,6.0,8.0,81,0.00,,,0.00,Wunderground v.1.15,2013-08-13 15:36:00,
2013-08-13 11:42:00,78.7,72.0,29.92,South,176,7.0,12.0,80,0.00,,,0.00,Wunderground v.1.15,2013-08-13 15:42:00,
2013-08-13 11:48:00,78.3,72.0,29.93,South,190,8.0,12.0,81,0.00,,,0.00,Wunderground v.1.15,2013-08-13 15:48:00,
2013-08-13 11:54:00,78.4,72.1,29.93,South,170,6.0,8.0,81,0.00,,,0.00,Wunderground v.1.15,2013-08-13 15:54:00,
2013-08-13 12:00:00,78.6,72.3,29.92,SSE,168,6.0,9.0,81,0.00,,,0.00,Wunderground v.1.15,2013-08-13 16:00:00,
2013-08-13 12:06:00,78.8,72.1,29.92,SSW,195,6.0,9.0,80,0.00,,,0.00,Wunderground v.1.15,2013-08-13 16:06:00,
2013-08-13 12:12:00,79.2,72.1,29.92,NNW,327,6.0,6.0,79,0.00,,,0.00,Wunderground v.1.15,2013-08-13 16:12:00,
2013-08-13 12:18:00,79.1,72.4,29.92,SSW,207,6.0,8.0,80,0.00,,,0.00,Wunderground v.1.15,2013-08-13 16:18:00,
2013-08-13 12:24:00,76.9,71.0,29.92,SSW,208,8.0,14.0,82,1.95,,,0.06,Wunderground v.1.15,2013-08-13 16:24:00,
2013-08-13 12:30:00,73.9,69.8,29.93,South,181,10.0,10.0,87,0.13,,,0.10,Wunderground v.1.15,2013-08-13 16:30:00,
2013-08-13 12:36:00,72.6,69.5,29.92,SW,221,7.0,10.0,90,0.17,,,0.12,Wunderground v.1.15,2013-08-13 16:36:00,
2013-08-13 12:42:00,72.4,69.9,29.93,SW,226,3.0,4.0,92,0.07,,,0.13,Wunderground v.1.15,2013-08-13 16:42:00,
2013-08-13 12:48:00,72.3,69.5,29.92,SW,217,4.0,5.0,91,0.26,,,0.15,Wunderground v.1.15,2013-08-13 16:48:00,
2013-08-13 12:54:00,72.1,69.6,29.92,WSW,239,5.0,7.0,92,0.16,,,0.17,Wunderground v.1.15,2013-08-13 16:54:00,
2013-08-13 13:00:00,72.0,69.2,29.92,SW,228,6.0,6.0,91,0.40,,,0.20,Wunderground v.1.15,2013-08-13 17:00:00,
2013-08-13 13:06:00,72.2,69.7,29.92,SSW,208,6.0,6.0,92,0.13,,,0.21,Wunderground v.1.15,2013-08-13 17:06:00,
2013-08-13 13:14:00,72.5,70.0,29.91,SW,217,4.0,5.0,92,0.05,,,0.21,Wunderground v.1.15,2013-08-13 17:14:00,